Regional Weather Roundup
Issued by NWS

Home | Current Version | Previous Version | Text Only | Print | Product List | Glossary On
Versions: 1 2 3 4 5 6 7 8 9 10 11 12 13 14 15 16 17 18 19 20 21 22 23 24 25 26 27 28 29 30 31 32 33 34 35 36 37 38 39 40 41 42 43 44 45 46 47 48 49 50
000
ASUS43 KLSX 070707
RWRMO

WEATHER SUMMARY FOR MISSOURI
NATIONAL WEATHER SERVICE SPRINGFIELD MO
200 AM CDT TUE JUL 07 2015

NOTE: "FAIR" INDICATES FEW OR NO CLOUDS BELOW 12,000 FEET WITH NO
       SIGNIFICANT WEATHER AND/OR OBSTRUCTIONS TO VISIBILITY.
       CURRENT SKY AND/OR WEATHER CONDITIONS ARE NOT AVAILABLE FOR
       CHILLICOTHE AND FARMINGTON.

MOZ001>031-035>038-043-044-053-054-070800-
...NORTHERN AND WESTERN MISSOURI...

CITY           SKY/WX    TMP DP  RH WIND       PRES   REMARKS
KANSAS CTY INT LGT RAIN  63  62  97 N18G28    29.98R FOG
KANSAS C DTWN  LGT RAIN  68  66  93 N7        29.96R FOG
LEE`S SUMMIT   HVY RAIN  71  69  93 NW7       29.96R FOG
ST JOSEPH      LGT RAIN  65  63  93 MISG      30.00S FOG
CHILLICOTHE      N/A     67  62  84 N13G22    29.97R
KIRKSVILLE     LGT RAIN  66  62  87 N13       29.94R FOG

$$
MOZ066>068-077>081-088>096-101>105-070800-
...SOUTHWEST MISSOURI...

CITY           SKY/WX    TMP DP  RH WIND       PRES   REMARKS
SPRINGFIELD    CLOUDY    76  71  85 NW3       29.94F
JOPLIN         LGT RAIN  72  71  97 CALM      29.94F

$$
MOZ032>034-039>042-045>050-055>058-069>072-070800-
...CENTRAL MISSOURI...

CITY           SKY/WX    TMP DP  RH WIND       PRES   REMARKS
COLUMBIA       LGT RAIN  72  70  93 SW8       29.92R
JEFFERSON CITY LGT RAIN  72  70  93 NW5       29.91R
ROLLA          LGT RAIN  72  70  93 W12G22    29.93R
SEDALIA        CLOUDY    73  70  90 W10G20    29.94R FOG
WHITEMAN AFB   LGT RAIN  72  71  98 W8        29.94R
WARRENSBURG    LGT RAIN  70  70 100 NW5       29.93F
OSAGE BEACH    CLOUDY    72  68  88 SW5       29.94F

$$
MOZ051-052-059>065-070800-
...EAST CENTRAL MISSOURI...

CITY           SKY/WX    TMP DP  RH WIND       PRES   REMARKS
ST LOUIS INTL  CLOUDY    81  72  74 SW13      29.89S
SPIRIT OF STL  CLOUDY    79  73  82 SW8       29.87S
ST CHARLES     CLOUDY    80  73  79 S10       29.86F HAZE

$$
MOZ072>076-082>087-097>100-106>115-070800-
...SOUTH CENTRAL AND SOUTHEAST MISSOURI...

CITY           SKY/WX    TMP DP  RH WIND       PRES   REMARKS
CAPE GIRARDEAU CLOUDY    75  71  87 SW12G18   29.96S
FARMINGTON     CLOUDY    75  72  88 SW13      29.98F
POPLAR BLUFF   CLOUDY    75  72  90 SW8       29.96F
WEST PLAINS    MOCLDY    77  71  82 SW9       29.98F

$$


USA.gov is the U.S. government's official web portal to all federal, state and local government web resources and services.